Change the Weather History Date:

Friday, January 4, 2013

  Actual Average (KFFM) Record (KFFM)
Temperature  
Mean Temperature 14 °F -  
Max Temperature 24 °F 14 °F 42 °F (2012)
Min Temperature 5 °F -3 °F -32 °F (1968)
Degree Days  
Heating Degree Days 50    
Moisture  
Dew Point 11 °F    
Average Humidity 80    
Maximum Humidity 92    
Minimum Humidity 73    
Precipitation  
Precipitation 0.01 in - - ()
Sea Level Pressure  
Sea Level Pressure 30.06 in    
Wind  
Wind Speed 8 mph (West)    
Max Wind Speed 14 mph    
Max Gust Speed -    
Visibility 9 miles    
Events      
Averages and records for this station are not official NWS values.
T = Trace of Precipitation, MM = Missing Value Source: NWS Daily Summary

Daily Weather History Graph

Daily Weather History Graph

Search for Another Location

Airport or City:

Trip Planner

Search our weather history database for the weather conditions in past years. The results will help you decide how hot, cold, wet, or windy it might be!

Date:

Astronomy

Jan. 04, 2013 Rise Set
Actual Time 8:09 AM CST 4:54 PM CST
Civil Twilight 7:34 AM CST 5:28 PM CST
Nautical Twilight 6:56 AM CST 6:06 PM CST
Astronomical Twilight 6:20 AM CST 6:42 PM CST
Moon No Moon Rise 11:26 AM CST (1/4)
Length of Visible Light 9h 54m
Length of Day
8h 45m
Waning Gibbous, 55% of the Moon is Illuminated
Jan 4
Waning Gibbous
Jan 4
Last Quarter
Jan 11
New
Jan 18
First Quarter
Jan 26
Full

Hourly Weather History & Observations

Time (CST) Temp. Windchill Dew Point Humidity Pressure Visibility Wind Dir Wind Speed Gust Speed Precip Events Conditions
12:15 AM 17.6 °F 4.3 °F 12.2 °F 79% 30.00 in 10.0 mi West 12.7 mph - N/A   Clear
12:35 AM 15.8 °F 3.4 °F 10.4 °F 79% 29.99 in 10.0 mi WSW 10.4 mph - N/A   Clear
12:55 AM 15.8 °F 3.4 °F 10.4 °F 79% 29.99 in 10.0 mi West 10.4 mph - N/A   Clear
1:15 AM 15.8 °F 2.7 °F 10.4 °F 79% 29.98 in 10.0 mi West 11.5 mph - N/A   Clear
1:35 AM 17.6 °F 3.7 °F 10.4 °F 73% 29.98 in 10.0 mi West 13.8 mph - N/A   Clear
1:55 AM 19.4 °F 6.0 °F 12.2 °F 74% 29.98 in 10.0 mi West 13.8 mph - N/A   Clear
2:15 AM 19.4 °F 8.6 °F 12.2 °F 74% 30.00 in 10.0 mi NW 9.2 mph - N/A   Clear
2:55 AM 19.4 °F 6.0 °F 12.2 °F 74% 30.00 in 10.0 mi West 13.8 mph - N/A   Clear
3:15 AM 17.6 °F 3.7 °F 10.4 °F 73% 30.00 in 10.0 mi West 13.8 mph - N/A   Clear
5:35 AM 17.6 °F 5.0 °F 10.4 °F 73% 30.01 in 10.0 mi West 11.5 mph - N/A   Clear
5:55 AM 17.6 °F 5.0 °F 10.4 °F 73% 30.01 in 10.0 mi West 11.5 mph - N/A   Clear
6:15 AM 15.8 °F 3.4 °F 10.4 °F 79% 30.02 in 10.0 mi West 10.4 mph - N/A   Clear
6:35 AM 14.0 °F 6.5 °F 10.4 °F 86% 30.02 in 10.0 mi West 4.6 mph - N/A   Clear
6:55 AM 14.0 °F 6.5 °F 8.6 °F 79% 30.03 in 10.0 mi West 4.6 mph - N/A   Clear
7:15 AM 14.0 °F 5.1 °F 8.6 °F 79% 30.03 in 10.0 mi West 5.8 mph - N/A   Clear
7:35 AM 14.0 °F 3.9 °F 8.6 °F 79% 30.04 in 10.0 mi West 6.9 mph - N/A   Clear
7:55 AM 12.2 °F 2.9 °F 8.6 °F 85% 30.05 in 10.0 mi West 5.8 mph - N/A   Clear
8:15 AM 12.2 °F 1.7 °F 8.6 °F 85% 30.05 in 10.0 mi West 6.9 mph - N/A   Clear
8:55 AM 14.0 °F 2.0 °F 8.6 °F 79% 30.06 in 10.0 mi WNW 9.2 mph - N/A   Clear
9:15 AM 14.0 °F 1.2 °F 8.6 °F 79% 30.07 in 10.0 mi WNW 10.4 mph - N/A   Clear
9:35 AM 14.0 °F 5.1 °F 8.6 °F 79% 30.08 in 10.0 mi WNW 5.8 mph - N/A   Clear
9:55 AM 15.8 °F 5.1 °F 10.4 °F 79% 30.09 in 10.0 mi WNW 8.1 mph - N/A   Clear
10:15 AM 15.8 °F 4.2 °F 10.4 °F 79% 30.09 in 10.0 mi WNW 9.2 mph - N/A   Clear
10:55 AM 19.4 °F 10.4 °F 12.2 °F 74% 30.10 in 10.0 mi West 6.9 mph - N/A   Clear
11:15 AM 19.4 °F 9.5 °F 12.2 °F 74% 30.10 in 10.0 mi West 8.1 mph - N/A   Clear
11:35 AM 21.2 °F 13.6 °F 14.0 °F 74% 30.10 in 10.0 mi West 5.8 mph - N/A   Clear
11:55 AM 21.2 °F 13.6 °F 14.0 °F 74% 30.08 in 10.0 mi West 5.8 mph - N/A   Clear
12:15 PM 21.2 °F 14.9 °F 15.8 °F 80% 30.08 in 10.0 mi West 4.6 mph - N/A   Clear
12:35 PM 23.0 °F 14.7 °F 15.8 °F 74% 30.08 in 10.0 mi West 6.9 mph - N/A   Clear
12:55 PM 23.0 °F 15.8 °F 17.6 °F 80% 30.07 in 10.0 mi West 5.8 mph - N/A   Clear
1:15 PM 23.0 °F 14.7 °F 17.6 °F 80% 30.07 in 10.0 mi WNW 6.9 mph - N/A   Clear
1:35 PM 24.8 °F 16.9 °F 17.6 °F 74% 30.07 in 10.0 mi WNW 6.9 mph - N/A   Clear
1:55 PM 24.8 °F 16.9 °F 17.6 °F 74% 30.08 in 10.0 mi West 6.9 mph - N/A   Clear
2:15 PM 24.8 °F 19.1 °F 17.6 °F 74% 30.08 in 10.0 mi West 4.6 mph - N/A   Clear
2:35 PM 24.8 °F 20.5 °F 19.4 °F 80% 30.08 in 10.0 mi WNW 3.5 mph - N/A   Clear
2:55 PM 24.8 °F 20.5 °F 17.6 °F 74% 30.07 in 10.0 mi NNW 3.5 mph - 0.01 in   Clear
3:15 PM 24.8 °F 20.5 °F 17.6 °F 74% 30.07 in 10.0 mi NW 3.5 mph - N/A   Clear
3:35 PM 24.8 °F - 17.6 °F 74% 30.08 in 10.0 mi Calm Calm - N/A   Clear
3:55 PM 23.0 °F - 15.8 °F 74% 30.08 in 10.0 mi Calm Calm - N/A   Clear
4:15 PM 24.8 °F - 17.6 °F 74% 30.08 in 10.0 mi Calm Calm - N/A   Clear
4:35 PM 23.0 °F 18.4 °F 15.8 °F 74% 30.09 in 10.0 mi West 3.5 mph - N/A   Clear
4:55 PM 19.4 °F 14.3 °F 14.0 °F 80% 30.10 in 10.0 mi West 3.5 mph - N/A   Clear
5:15 PM 17.6 °F - 12.2 °F 79% 30.09 in 10.0 mi Calm Calm - N/A   Clear
5:35 PM 17.6 °F - 14.0 °F 86% 30.09 in 10.0 mi Calm Calm - N/A   Clear
5:55 PM 17.6 °F - 12.2 °F 79% 30.09 in 10.0 mi Calm Calm - N/A   Clear
6:15 PM 17.6 °F - 14.0 °F 86% 30.08 in 10.0 mi Calm Calm - N/A   Clear
6:35 PM 15.8 °F - 12.2 °F 86% 30.08 in 10.0 mi Calm Calm - N/A   Clear
6:55 PM 12.2 °F 6.1 °F 10.4 °F 92% 30.08 in 10.0 mi SSE 3.5 mph - N/A   Clear
7:15 PM 12.2 °F - 10.4 °F 92% 30.08 in 10.0 mi Calm Calm - N/A   Clear
7:35 PM 12.2 °F - 10.4 °F 92% 30.08 in 7.0 mi Calm Calm - N/A   Clear
7:55 PM 12.2 °F - 8.6 °F 85% 30.08 in 7.0 mi Calm Calm - N/A   Clear
8:15 PM 12.2 °F - 8.6 °F 85% 30.08 in 10.0 mi Calm Calm - N/A   Clear
8:35 PM 10.4 °F - 8.6 °F 92% 30.08 in 7.0 mi Calm Calm - N/A   Clear
8:55 PM 10.4 °F - 8.6 °F 92% 30.07 in 4.0 mi Calm Calm - N/A   Clear
9:15 PM 10.4 °F - 6.8 °F 85% 30.07 in 5.0 mi Calm Calm - N/A   Clear
9:55 PM 8.6 °F - 3.2 °F 79% 30.06 in 10.0 mi Calm Calm - N/A   Scattered Clouds
10:15 PM 8.6 °F - 5.0 °F 85% 30.05 in 10.0 mi Calm Calm - N/A   Scattered Clouds
10:35 PM 6.8 °F - 3.2 °F 85% 30.05 in 10.0 mi Calm Calm - N/A   Clear
10:55 PM 5.0 °F -4.1 °F 1.4 °F 85% 30.04 in 10.0 mi SE 4.6 mph - N/A   Clear
11:15 PM 5.0 °F - 3.2 °F 92% 30.06 in 0.2 mi Calm Calm - N/A   Overcast
11:35 PM 5.0 °F - 3.2 °F 92% 30.05 in 0.2 mi Calm Calm - N/A   Overcast
11:55 PM 5.0 °F -4.1 °F 1.4 °F 85% 30.03 in 1.0 mi SE 4.6 mph - N/A   Overcast